Regional Weather Roundup
Issued by NWS Midland/Odessa, TX

Skip options and go directly to product.
Home | Oldest Version | Previous Version | Current Version | All | Text Only | Save Text | Print | Product List | Glossary Off

Skip product version selection by date and time.   

175
ASUS44 KMAF 281410
RWRMAF
MIDLAND AREA WEATHER ROUNDUP
NATIONAL WEATHER SERVICE MIDLAND TX
900 AM CDT SUN MAY 28 2017

...IN SOUTHWEST TEXAS AND SOUTHEAST NEW MEXICO...

CITY           SKY/WX    TMP DP  RH WIND       PRES   REMARKS
ALPINE         SUNNY     64  48  55 N17G25    30.21S
ANDREWS        FAIR      64  47  54 N21G30    30.14R
ARTESIA        CLOUDY    63  41  45 N15       30.24R
BIG SPRING     SUNNY     66  55  67 N21G28    30.09R
CARLSBAD       PTSUNNY   63  44  50 N22       30.19R
DRYDEN           N/A     79  70  74 N12G18    29.94R
FORT STOCKTON  CLOUDY    67  53  61 N20       30.11R
GUAD PASS      CLOUDY    59  42  53 NE44G52   30.18R
HOBBS          SUNNY     59  43  55 N22G28    30.19R
MARFA          SUNNY     63  48  58 NE28      30.15R
MIDLAND AIRPK  MOSUNNY   67  54  61 NE20G30   30.10R
MIDLAND INTL   MOSUNNY   67  53  61 N24G32    30.09R
ODESSA         MOSUNNY   67  52  58 NE22G30   30.10R
PECOS          PTSUNNY   68  48  48 N15       30.15R
PRESIDIO       FAIR      84  38  19 E3        29.98R
SEMINOLE       SUNNY     63  46  53 NE20G25   30.17R
SNYDER         SUNNY     65  54  65 N17       30.08R
WINK           SUNNY     67  49  52 N16       30.13R
$$
...OTHER STATIONS IN TEXAS...

CITY           SKY/WX    TMP DP  RH WIND       PRES   REMARKS
ABILENE        SUNNY     70  59  68 N22G30    30.02R
AMARILLO       SUNNY     59  47  64 N18       30.22R
AUSTIN         CLOUDY    82  74  76 CALM      29.90R
BROWNSVILLE    PTSUNNY   87  77  72 S21       29.83R
CORPUS CHRISTI PTSUNNY   82  79  90 SE7       29.85R
DALLAS FTW     RAIN      73  71  93 E8        29.93R FOG
DEL RIO        CLOUDY    79  73  82 E8        29.82S
EL PASO        PTSUNNY   68  38  33 N12       30.14R
HOUSTON INT    PTSUNNY   82  75  79 S8        29.94R
LUBBOCK        MOSUNNY   63  45  51 N20G26    30.16R
SAN ANGELO     MOSUNNY   74  59  59 NE18G26   30.00R
SAN ANTONIO    MOSUNNY   80  73  79 SE10      29.88F
WACO           SUNNY     80  73  79 S13       29.89R
WICHITA FALLS  NOT AVBL
$$
...OTHER LOCATIONS IN NEW MEXICO...

CITY           SKY/WX    TMP DP  RH WIND       PRES   REMARKS
ALAMOGORDO     SUNNY     63  36  36 SE5       30.16R
ALBUQUERQUE    MOSUNNY   60  39  45 E24       30.26R
CANNON AFB     SUNNY     60  43  52 NE20G25   30.26R
CLOVIS         SUNNY     61  43  51 N22G30    30.25R
HOLLOMAN AFB   SUNNY     65  37  35 CALM      30.18R
ROSWELL        MOSUNNY   64  39  39 N16G25    30.23S
RUIDOSO        CLOUDY    50  32  50 SE10      30.37R
SANTA FE       SUNNY     53  40  61 SE6       30.32R
TRUTH OR CONSE LGT RAIN  63  40  42 NE18G25   30.18R
TUCUMCARI      SUNNY     63  41  44 N12       30.24R
$$

  • National Weather Service
  • Southern Region Headquarters
  • 819 Taylor Street, Room 10A06
  • Fort Worth, TX 76102
  • Page Author: NWS Fort Worth
  • Web Master: SR-SRH.Webmaster@noaa.gov
  •  
  • Page last modified: 30-Sep-2016 6:36 PM UTC
USA.gov is the U.S. government's official web portal to all federal, state and local government web resources and services.